#timestamp,LO_Frequency,Hit,StdDev 
1696770015.1,286047002.5,N
1696770016.0,286047002.5,N
1696770035.8,286047002.1,N
1696770055.7,286047002.7,N
1696770075.5,286047000.8,N
1696770095.3,286047002.4,N
1696770115.2,286047002.3,N
1696770135.9,286047001.8,N
1696770155.7,286047003.3,N
1696770175.6,286047006.5,N
1696770195.4,286047006.5,N
1696770215.2,286047008.6,N
1696770235.1,286047008.7,N
1696770236.0,286047008.7,N
1696770255.8,286047009.0,N
1696770275.7,286047008.9,N
1696770295.5,286047010.8,N
1696770315.3,286047008.6,N
1696770335.2,286047008.8,N
1696770355.0,286047006.2,N
1696770355.9,286047006.2,N
1696770375.7,286047007.1,N
1696770395.6,286047011.7,Y
1696770415.4,286047005.8,P
1696770435.3,286047008.5,P
1696770455.1,286047007.3,P
1696770456.0,286047007.3,Y
1696770475.8,286046998.3,P
1696770495.7,286046995.8,N
1696770515.5,286046993.0,N
1696770535.4,286046991.2,N
1696770555.2,286046990.6,N
1696770575.0,286046992.2,N
1696770575.9,286046992.2,N
1696770595.8,286046992.8,N
1696770615.6,286046988.1,N
1696770635.4,286046983.8,Y
1696770655.3,286046988.7,P
1696770675.1,286046987.5,P
1696770695.9,286046989.4,P
1696770715.7,286046991.9,Y
1696770735.5,286047002.8,P
1696770755.4,286046997.0,N
1696770775.2,286046996.8,N
1696770795.0,286046996.8,N
1696770795.9,286046996.8,N
1696770815.8,286046995.0,N
1696770835.6,286046997.7,N
1696770855.5,286046999.0,N
1696770875.3,286046999.5,N
1696770895.1,286046999.2,N
1696770915.9,286046997.6,N
1696770935.7,286046998.3,N
1696770955.5,286047001.6,N
1696770975.4,286046998.3,N
1696770995.2,286046999.4,N
1696771015.1,286046998.3,N
1696771016.0,286046998.3,N
1696771035.8,286047001.6,N
1696771055.7,286047002.9,N
1696771075.5,286047005.1,N
1696771095.3,286047004.3,N
1696771115.2,286047000.2,N
1696771135.0,286046999.6,N
1696771135.9,286046999.6,N
1696771155.7,286046995.9,N
1696771175.6,286046994.5,N
1696771195.4,286046992.5,N
1696771215.3,286046990.8,N
1696771235.1,286046987.1,Y
1696771255.8,286046990.0,P
1696771275.7,286046987.3,P
1696771295.5,286046989.6,N
1696771315.4,286046987.4,Y
1696771335.2,286046996.9,P
1696771355.0,286046998.3,N
1696771355.9,286046998.3,N
1696771375.8,286047004.2,N
1696771395.6,286047005.6,N
1696771415.4,286047001.9,N
1696771435.3,286047004.7,N
1696771455.1,286047006.3,N
1696771475.9,286047006.9,N
1696771495.7,286047004.1,N
1696771515.5,286047002.7,N
1696771535.4,286047000.3,N
1696771555.2,286047000.8,N
1696771575.0,286046998.3,N
1696771576.0,286046998.3,N
1696771595.8,286046997.3,N
1696771615.6,286046997.6,N
1696771635.5,286046994.9,N
1696771655.3,286046996.4,N
1696771675.1,286046999.4,N
1696771695.9,286046998.5,N
1696771715.7,286046999.9,N
1696771735.5,286047002.0,N
1696771755.4,286047002.2,N
1696771775.2,286047001.4,N
1696771795.1,286047002.0,N
1696771796.0,286047002.0,N
1696771815.8,286047000.5,N
1696771835.6,286046998.8,N
1696771855.5,286046997.2,N
1696771875.3,286046998.3,N
1696771895.2,286047002.5,N
1696771915.0,286047003.6,N
1696771915.9,286047003.6,N
1696771935.7,286047005.4,N
1696771955.6,286047005.2,N
1696771975.4,286047006.1,N
1696771995.3,286047010.2,Y
1696772015.1,286047008.0,P
1696772016.0,286047008.0,N
1696772035.8,286047008.3,N
1696772055.7,286047013.9,Y
1696772075.5,286047008.0,P
1696772095.4,286047011.1,P
1696772115.2,286047008.5,P
1696772135.0,286047003.8,N
1696772135.9,286047003.8,N
1696772155.8,286047002.3,N
1696772175.6,286047001.3,N
1696772195.4,286047000.6,N
1696772215.3,286047001.4,N
1696772235.1,286047003.0,N
1696772255.9,286047003.2,N
1696772275.7,286047003.5,N
1696772295.5,286047001.0,N
1696772315.4,286046997.1,N
1696772335.2,286046995.1,N
1696772355.0,286046997.6,N
1696772356.0,286046997.6,N
1696772375.8,286046999.0,N
1696772395.6,286046996.9,N
1696772415.5,286046997.6,N
1696772435.3,286046993.4,N
1696772455.1,286046992.0,N
1696772475.9,286046988.5,N
1696772495.7,286046989.6,N
1696772515.5,286046985.5,N
1696772535.4,286046984.3,N
1696772555.2,286046985.0,N
1696772575.1,286046983.8,N
1696772576.0,286046983.8,N
1696772595.8,286046990.9,N
1696772615.6,286046992.5,N
1696772635.5,286046990.4,N
1696772655.3,286046994.5,N
1696772675.1,286046992.6,N
1696772695.9,286046995.9,N
1696772715.7,286046992.2,N
1696772735.6,286046990.4,N
1696772755.4,286046987.7,N
1696772775.2,286046985.8,N
1696772795.1,286046988.4,N
1696772796.0,286046988.4,N
1696772815.8,286046988.3,N
1696772835.7,286046985.9,N
1696772855.5,286046985.7,Y
1696772875.3,286046993.8,P
1696772895.2,286046992.8,P
1696772915.0,286046992.8,P
1696772915.9,286046992.8,Y
1696772935.8,286046999.6,P
1696772955.6,286046997.3,N
1696772975.4,286046995.4,N
1696772995.3,286046994.4,N
1696773015.1,286046994.6,N
1696773035.8,286046999.1,N
1696773055.7,286047004.1,N
1696773075.5,286047005.3,N
1696773095.4,286047004.7,N
1696773115.2,286047006.7,N
1696773135.0,286047008.4,N
1696773135.9,286047008.4,N
1696773155.8,286047004.5,N
1696773175.6,286047003.4,N
1696773195.4,286047002.7,N
1696773215.3,286046998.1,N
1696773235.1,286046998.5,N
1696773255.9,286046998.8,N
1696773275.7,286047000.8,N
1696773295.5,286046998.8,N
1696773315.4,286046999.6,N
1696773335.2,286046996.8,N
1696773355.0,286046995.3,N
1696773355.9,286046995.3,N
1696773375.8,286046995.8,N
1696773395.6,286046996.0,N
1696773415.5,286046996.9,N
1696773435.3,286046999.6,N
1696773455.1,286047001.7,N
1696773475.9,286047005.4,N
1696773495.7,286047005.5,N
1696773515.5,286047007.1,N
1696773535.4,286047005.4,N
1696773555.2,286047003.4,N
1696773575.1,286047000.5,N
1696773576.0,286047000.5,N
1696773595.8,286046999.2,N
